Powerscourt Airfield

Jump to: basic info | weather | comments

Related pages: nearby airports | nearby navaids | notams | map

Basic information (top)

Codes: EIPT
Location: lon 53.178301, lat -6.196495, elev 470 ft / 143 m msl
Status: small_airport

Weather (top)

Current conditions for Casement Air Base 12nm (22km) NW (rec'd 2014/09/20 01:00Z):

EIME 200100Z 00000KT 6000 OVC019 14/14 Q1016

Airport forecast for Dublin Airport 15nm (27km) N (rec'd 2014/09/19 00:25Z):

TAF EIDW 192300Z 2000/2024 VRB03KT 8000 FEW007 BKN015 
      TEMPO 2000/2006 3000 BR -RADZ BKN005 PROB30 
      TEMPO 2000/2006 1500 BKN003 
      BECMG 2003/2006 35008KT 
      BECMG 2006/2008 36013KT 9999 FEW012 BKN020 
      BECMG 2018/2021 01007KT

Latest comments (top)

Reopened: does anybody know about reopening and ppr? [read]

Operations suspended at this airport: Air Accident Investigation Unit Interim ... [read]

re: Powerscourt Airfield: Thank you very much - I've updated the position. [read]

Powerscourt Airfield: Position 53:10.787N 006:12.075W ... [read]

More... (top)

See also NOTAMs and nearby airports and navaids, or visit the Powerscourt Airfield page at the main OurAirports website..